THORAD DELTA 1 DEB, 8299

Orbit data source: Space-Track

THORAD DELTA 1 DEB, 8299 is space debris in SSO originally from a launch on Fri, 15 Nov 1974 UTC launched from the Air Force Western Test Range (AFWTR). Debris objects in space refer to the collection of defunct objects orbiting the Earth. Examples of debris include non-operational satellites, rocket bodies, and fragments generated from explosions, collisions, or faulty payload assembly.

Loading next visibility...
Identifier
8299, 1974-089BG
Orbit
SSO
Country
Flag of USUS
Related business
Manufacturer
Unknown
Mission
Spacecraft
Bus & Motor
Unknown
Mass
Unknown
Launch date (UTC)
1974-11-15 (51 years ago)
Launch vehicle
Unknown
Launch site
Air Force Western Test Range (AFWTR)
Object type
Payload
Rocket body
Debris
Shape & HBR
Unknown shape, 0.1 m
Radar Cross Section
Small (<0.1 m²)

Expand to show TLE details & history
Last TLE update: 17 hours ago

TLE from 17 hours ago
0 THORAD DELTA 1 DEB
1 08299U 74089BG  25341.26156587  .00033886  00000-0  19487-1 0  9999
2 08299 102.0866  95.0926 0338440 192.5038 166.7550 13.84054129446892
Epoch: 2025-12-07T06:16Z
TLE epoch observation values (Epoch: 2025-12-07T06:16:39.291Z)
Latitude
-0.00005°
Longitude
-75.34859°
Altitude
1,194.148 km
Speed
7.136 km/s
True Right ascension
06h 20m 22s
True Declination
0° 00' 00"
Sunlit
Object was in full shadow at epoch
Visualization orbit readout
Latitude
Unknown
Longitude
Unknown
Altitude
Unknown
Speed
Unknown
Apparent Right ascension
Unknown
Apparent Declination
Unknown
Sunlit
N/A
Visualization observer readout
Local Sidereal Time
21:12:00
Azimuth
Unknown
Elevation
Unknown
Doppler factor
Unknown
Orbital elements
Apogee altitude
1,194.843 km
Perigee altitude
699.024 km
Semi-major axis
7,325.07 km
Eccentricity
0.03384
Inclination
102.0866°
RAAN
95.0926°
Arg. of periapsis
192.5038°
True anomaly
167.60834°
Mean anomaly
166.755°
Eccentric anomaly
167.1851°
Mean motion
3.46199 °/min
Orbital period
103.99 mins
BSTAR
0.019487

Documentation

Showing up to 5 results
|